Yatton Keynell, United Kingdom

6:05 PM GMT on March 23, 2019 (GMT +0000)
Yatton Keynell

Weather History for 03740 - August, 2015

Change the Weather History Date:

Tuesday, August 4, 2015

  Actual Average Record
Temperature  
Mean Temperature 58 °F -  
Max Temperature 66 °F 67 °F - ()
Min Temperature 50 °F 52 °F - ()
Degree Days  
Heating Degree Days 7    
Growing Degree Days 8 (Base 50)    
Moisture  
Dew Point 51 °F    
Average Humidity 73    
Maximum Humidity 100    
Minimum Humidity 46    
Precipitation  
Precipitation 0.00 in 0.08 in - ()
Sea Level Pressure  
Sea Level Pressure 29.90 in    
Wind  
Wind Speed 7 mph ()    
Max Wind Speed 17 mph    
Max Gust Speed -    
T = Trace of Precipitation, MM = Missing Value Source: Averaged Metar Reports

Daily Weather History Graph

Daily Weather History Graph

Search for Another Location

Airport or City:

Astronomy

Aug. 04, 2015 Rise Set
Actual Time 5:35 AM BST 8:51 PM BST
Civil Twilight 4:55 AM BST 9:31 PM BST
Nautical Twilight 4:02 AM BST 10:24 PM BST
Astronomical Twilight 2:50 AM BST 11:34 PM BST
Moon 10:45 PM BST (8/4) 10:50 AM BST (8/4)
Length of Visible Light 16h 35m
Length of Day
15h 15m
Waning Gibbous, 78% of the Moon is Illuminated
Aug 4
Waning Gibbous
Aug 7
Last Quarter
Aug 14
New
Aug 22
First Quarter
Aug 29
Full

Hourly Weather History & Observations

Time (BST) Temp. Dew Point Humidity Pressure Visibility Wind Dir Wind Speed Gust Speed Precip Events Conditions
12:00 AM 57 °F 54 °F 87% 29.86 in - SW 6.9 mph - -   Partly Cloudy
1:00 AM 55 °F 52 °F 88% 29.85 in - SW 5.8 mph - -  
2:00 AM 54 °F 52 °F 91% 29.85 in - SSW 4.6 mph - -  
3:00 AM 53 °F 52 °F 94% 29.86 in - SW 6.9 mph - -  
4:00 AM 52 °F 51 °F 94% 29.86 in - South 3.5 mph - -  
5:00 AM 51 °F 50 °F 96% 29.86 in - SSW 3.5 mph - -  
6:00 AM 51 °F 51 °F 100% 29.87 in - SSW 5.8 mph - -   Scattered Clouds
7:00 AM 54 °F 52 °F 92% 29.87 in - South 9.2 mph - -  
8:00 AM 57 °F 53 °F 80% 29.88 in - SSW 10.4 mph - -   Scattered Clouds
9:00 AM 59 °F 52 °F 70% 29.88 in - SW 12.7 mph - -   Mostly Cloudy
10:00 AM 60 °F 52 °F 67% 29.89 in - WSW 13.8 mph - -   Mostly Cloudy
11:00 AM 64 °F 51 °F 53% 29.89 in - SW 15.0 mph - -   Mostly Cloudy
12:00 PM 63 °F 49 °F 51% 29.90 in - WSW 17.3 mph - -   Partly Cloudy
1:00 PM 62 °F 51 °F 59% 29.91 in - West 12.7 mph - -   Mostly Cloudy
2:00 PM 60 °F 53 °F 71% 29.93 in - West 11.5 mph - -   Partly Cloudy
3:00 PM 64 °F 52 °F 56% 29.92 in - WSW 11.5 mph - -   Scattered Clouds
4:00 PM 62 °F 51 °F 59% 29.92 in - WSW 8.1 mph - -   Partly Cloudy
5:00 PM 62 °F 51 °F 58% 29.93 in - SW 8.1 mph - -   Scattered Clouds
6:00 PM 65 °F 49 °F 46% 29.93 in - WSW 11.5 mph - -   Mostly Cloudy
7:00 PM 63 °F 51 °F 57% 29.94 in - West 11.5 mph - -   Mostly Cloudy
8:00 PM 60 °F 50 °F 62% 29.95 in - West 9.2 mph - -   Mostly Cloudy
9:00 PM 58 °F 51 °F 71% 29.97 in - WSW 9.2 mph - -   Mostly Cloudy
10:00 PM 58 °F 51 °F 72% 29.98 in - SW 5.8 mph - -   Mostly Cloudy
11:00 PM 57 °F 51 °F 72% 29.99 in - SSW 5.8 mph - -   Scattered Clouds